20050630,000021,99126,32.707201,-117.236740,0.0,23.021,0.056,0.107,2128.20,0.0,0.689,18.420,18.378, NaN,0.000,   NaN,19.49,1010.86,80.44,19.68,139.8,136.8,2.4,2.6,323.1,320.1,2.4,2.6,NaN, NaN,22.0,266.5,349.5,1120089623,1120089623,1,0.0,000021,000023,183.1,32.707306,-117.236697,NaN,NaN,NaN,23.027, NaN,NaN,NaN, NaN, NaN
20050630,000051,99157,32.707205,-117.236740,0.0,23.023,0.056,0.107,1407.24,0.0,0.708,18.443,18.403, NaN,0.000,   NaN,19.47,1010.86,80.24,19.69,119.1,118.1,2.4,2.4,302.2,301.3,2.4,2.4,NaN, NaN,22.2,266.5,349.5,1120089653,1120089653,1,0.0,000051,000053,182.9,32.707330,-117.236690,NaN,NaN,NaN,23.029, NaN,NaN,NaN, NaN, NaN
20050630,000121,99187,32.707203,-117.236738,0.0,23.022,0.056,0.107,1573.42,0.0,0.689,18.472,18.431, NaN,0.000,   NaN,19.34,1010.87,80.21,19.61,111.2,117.5,2.8,2.5,293.9,300.1,2.8,2.5,NaN, NaN,21.9,266.5,349.5,1120089683,1120089683,1,0.0,000081,000083,182.5,32.707338,-117.236690,NaN,NaN,NaN,23.028, NaN,NaN,NaN, NaN, NaN
20050630,000151,99217,32.707203,-117.236740,0.0,23.024,0.056,0.107,1463.57,0.0,0.689,18.492,18.452, NaN,0.000,   NaN,19.26,1010.85,80.22,19.57,121.1,127.8,2.2,2.2,308.4,310.6,2.2,2.2,NaN, NaN,21.4,266.5,349.5,1120089713,1120089712,1,0.0,000111,000112,183.6,32.707336,-117.236698,NaN,NaN,NaN,23.030, NaN,NaN,NaN, NaN, NaN
20050630,000221,99247,32.707198,-117.236742,0.0,23.026,0.056,0.107,1627.42,0.0,0.708,18.499,18.463, NaN,0.000,   NaN,19.24,1010.84,80.59,19.58,122.6,129.7,1.7,1.7,313.3,312.9,1.7,1.7,NaN, NaN,21.4,266.5,349.5,1120089743,1120089743,1,0.0,000141,000143,182.0,32.707341,-117.236698,NaN,NaN,NaN,23.032, NaN,NaN,NaN, NaN, NaN
20050630,000251,99276,32.707196,-117.236742,0.0,23.026,0.056,0.107,1344.58,0.0,0.708,18.503,18.462, NaN,0.000,   NaN,19.31,1010.85,80.68,19.59,117.1,115.0,1.7,1.4,309.3,297.3,1.7,1.4,NaN, NaN,21.6,266.5,349.5,1120089773,1120089773,1,0.0,000172,000173,182.2,32.707341,-117.236700,NaN,NaN,NaN,23.032, NaN,NaN,NaN, NaN, NaN
20050630,000321,99306,32.707203,-117.236752,0.0,23.029,0.056,0.107,2142.56,0.0,0.689,18.504,18.463, NaN,0.000,   NaN,19.19,1010.86,80.21,19.54,92.9,96.4,2.4,2.1,275.1,278.5,2.4,2.1,NaN, NaN,24.5,266.5,349.5,1120089803,1120089803,1,0.0,000201,000203,182.6,32.707321,-117.236712,NaN,NaN,NaN,23.035, NaN,NaN,NaN, NaN, NaN
20050630,000351,99337,32.707200,-117.236752,0.0,23.030,0.056,0.107,1267.77,0.0,0.689,18.504,18.466, NaN,0.000,   NaN,19.27,1010.84,80.94,19.53,98.5,116.3,1.5,1.9,281.2,299.1,1.5,1.9,NaN, NaN,24.7,266.5,349.5,1120089833,1120089833,1,0.0,000231,000233,183.3,32.707310,-117.236708,NaN,NaN,NaN,23.036, NaN,NaN,NaN, NaN, NaN
20050630,000421,99367,32.707196,-117.236755,0.0,23.031,0.056,0.107,1195.28,0.0,0.689,18.502,18.463, NaN,0.000,   NaN,19.40,1010.84,81.10,19.57,140.2,141.1,1.7,2.4,323.3,324.3,1.7,2.4,NaN, NaN,24.8,266.5,349.5,1120089863,1120089863,1,0.0,000261,000263,183.3,32.707308,-117.236707,NaN,NaN,NaN,23.037, NaN,NaN,NaN, NaN, NaN
20050630,000451,99397,32.707200,-117.236752,0.0,23.032,0.056,0.107,1631.59,0.0,0.708,18.495,18.459, NaN,0.000,   NaN,19.27,1010.85,80.42,19.56,145.9,137.7,3.0,3.5,328.9,320.7,3.0,3.5,NaN, NaN,24.7,266.5,349.5,1120089893,1120089892,1,0.0,000291,000292,182.6,32.707315,-117.236702,NaN,NaN,NaN,23.038, NaN,NaN,NaN, NaN, NaN
20050630,000521,99427,32.707196,-117.236752,0.0,23.033,0.056,0.107,1505.30,0.0,0.708,18.497,18.455, NaN,0.000,   NaN,19.05,1010.83,80.44,19.43,140.5,144.7,2.5,3.1,323.4,327.6,2.5,3.1,NaN, NaN,24.9,266.5,349.5,1120089923,1120089923,1,0.0,000321,000323,183.1,32.707300,-117.236700,NaN,NaN,NaN,23.039, NaN,NaN,NaN, NaN, NaN
20050630,000551,99456,32.707193,-117.236753,0.0,23.034,0.056,0.107,1601.30,0.0,0.708,18.491,18.450, NaN,0.000,   NaN,19.04,1010.82,81.04,19.40,154.6,155.6,2.3,2.8,337.6,338.6,2.3,2.8,NaN, NaN,25.3,266.5,349.5,1120089953,1120089953,1,0.0,000351,000353,182.8,32.707301,-117.236693,NaN,NaN,NaN,23.040, NaN,NaN,NaN, NaN, NaN
20050630,000621,99486,32.707198,-117.236753,0.0,23.036,0.056,0.107,2272.72,0.0,0.689,18.491,18.448, NaN,0.000,   NaN,19.03,1010.82,80.89,19.41,137.3,133.1,2.8,3.1,320.2,316.0,2.8,3.1,NaN, NaN,25.4,266.5,349.5,1120089983,1120089983,1,0.0,000381,000383,183.0,32.707308,-117.236690,NaN,NaN,NaN,23.042, NaN,NaN,NaN, NaN, NaN
20050630,000651,99517,32.707200,-117.236752,0.0,23.037,0.056,0.107,1814.59,0.0,0.708,18.492,18.451, NaN,0.000,   NaN,19.05,1010.82,81.13,19.41,95.7,104.2,1.6,1.8,291.1,287.0,1.6,1.8,NaN, NaN,25.2,266.5,349.5,1120090013,1120090013,1,0.0,000411,000413,182.8,32.707301,-117.236697,NaN,NaN,NaN,23.043, NaN,NaN,NaN, NaN, NaN
20050630,000722,99547,32.707198,-117.236755,0.0,23.038,0.056,0.107,1752.25,0.0,0.708,18.495,18.453, NaN,0.000,   NaN,19.10,1010.81,81.38,19.42,86.6,90.3,1.1,1.1,280.4,273.3,1.1,1.1,NaN, NaN,24.7,266.5,349.5,1120090043,1120090043,1,0.0,000442,000443,183.3,32.707310,-117.236700,NaN,NaN,NaN,23.044, NaN,NaN,NaN, NaN, NaN
20050630,000751,99577,32.707196,-117.236757,0.0,23.038,0.056,0.107,1449.31,0.0,0.708,18.500,18.461, NaN,0.000,   NaN,19.08,1010.82,81.26,19.40,112.3,109.3,2.5,2.7,295.4,292.4,2.5,2.7,NaN, NaN,25.4,266.5,349.5,1120090073,1120090073,1,0.0,000472,000473,182.6,32.707303,-117.236715,NaN,NaN,NaN,23.044, NaN,NaN,NaN, NaN, NaN
20050630,000821,99607,32.707198,-117.236750,0.0,23.039,0.056,0.107,1886.99,0.0,0.708,18.503,18.462, NaN,0.000,   NaN,18.96,1010.82,81.11,19.38,119.3,111.9,2.7,3.1,302.2,294.9,2.7,3.1,NaN, NaN,25.5,266.5,349.5,1120090103,1120090103,1,0.0,000501,000503,183.0,32.707305,-117.236715,NaN,NaN,NaN,23.045, NaN,NaN,NaN, NaN, NaN
20050630,000851,99636,32.707191,-117.236752,0.0,23.040,0.056,0.107,1656.47,0.0,0.708,18.501,18.460, NaN,0.000,   NaN,18.95,1010.80,81.66,19.36,122.0,123.8,2.4,2.7,305.0,306.8,2.4,2.7,NaN, NaN,25.9,266.5,349.5,1120090133,1120090133,1,0.0,000531,000533,183.3,32.707310,-117.236720,NaN,NaN,NaN,23.046, NaN,NaN,NaN, NaN, NaN
20050630,000922,99668,32.707196,-117.236753,0.0,23.041,0.056,0.107,1645.28,0.0,0.708,18.497,18.455, NaN,0.000,   NaN,18.98,1010.83,81.48,19.37,148.4,147.0,2.9,4.0,331.5,330.1,2.9,4.0,NaN, NaN,25.9,266.5,349.5,1120090163,1120090163,1,0.0,000561,000563,183.0,32.707320,-117.236700,NaN,NaN,NaN,23.047, NaN,NaN,NaN, NaN, NaN
20050630,000951,99697,32.707195,-117.236745,0.0,23.042,0.056,0.107,1711.23,0.0,0.689,18.493,18.452, NaN,0.000,   NaN,18.85,1010.79,81.39,19.29,146.2,139.6,3.2,4.0,329.3,322.6,3.2,4.0,NaN, NaN,25.5,266.5,349.5,1120090193,1120090192,1,0.0,000591,000592,182.8,32.707315,-117.236692,NaN,NaN,NaN,23.048, NaN,NaN,NaN, NaN, NaN
20050630,001021,99727,32.707198,-117.236750,0.0,23.042,0.056,0.107,2183.38,0.0,0.689,18.491,18.451, NaN,0.000,   NaN,18.74,1010.78,81.39,19.24,146.7,136.4,3.0,3.6,329.7,319.4,3.0,3.6,NaN, NaN,26.6,266.5,349.5,1120090223,1120090223,1,0.0,000621,000623,183.3,32.707310,-117.236698,NaN,NaN,NaN,23.048, NaN,NaN,NaN, NaN, NaN
20050630,001051,99757,32.707205,-117.236747,0.0,23.044,0.056,0.107,2149.72,0.0,0.689,18.488,18.445, NaN,0.000,   NaN,18.72,1010.76,81.59,19.19,160.1,145.9,4.0,4.0,343.2,329.0,4.0,4.0,NaN, NaN,23.7,266.5,349.5,1120090253,1120090253,1,0.0,000651,000653,183.0,32.707310,-117.236712,NaN,NaN,NaN,23.050, NaN,NaN,NaN, NaN, NaN
20050630,001121,99786,32.707206,-117.236748,0.0,23.044,0.056,0.107,2071.81,0.0,0.689,18.494,18.454, NaN,0.000,   NaN,18.72,1010.77,81.92,19.16,165.7,157.9,4.0,3.9,349.0,341.2,4.0,3.9,NaN, NaN,23.3,266.5,349.5,1120090283,1120090283,1,0.0,000682,000683,183.5,32.707320,-117.236708,NaN,NaN,NaN,23.050, NaN,NaN,NaN, NaN, NaN
20050630,001151,99816,32.707205,-117.236748,0.0,23.045,0.056,0.107,2127.29,0.0,0.708,18.511,18.474, NaN,0.000,   NaN,18.76,1010.77,81.99,19.18,167.3,160.8,3.4,3.3,350.5,344.1,3.4,3.3,NaN, NaN,23.2,266.5,349.5,1120090313,1120090312,1,0.0,000711,000712,183.1,32.707336,-117.236693,NaN,NaN,NaN,23.051, NaN,NaN,NaN, NaN, NaN
20050630,001221,99847,32.707211,-117.236752,0.0,23.046,0.056,0.107,1603.76,0.0,0.708,18.537,18.497, NaN,0.000,   NaN,18.84,1010.76,82.26,19.19,177.0,171.9,3.1,3.1,0.1,355.0,3.1,3.1,NaN, NaN,23.2,266.5,349.5,1120090343,1120090343,1,0.0,000742,000743,183.0,32.707340,-117.236693,NaN,NaN,NaN,23.052, NaN,NaN,NaN, NaN, NaN
20050630,001251,99877,32.707201,-117.236750,0.0,23.047,0.056,0.107,1128.02,0.0,0.708,18.550,18.510, NaN,0.000,   NaN,18.91,1010.75,82.37,19.21,151.9,159.3,2.8,3.1,335.0,342.4,2.8,3.1,NaN, NaN,24.1,266.5,349.5,1120090373,1120090373,1,0.0,000771,000773,183.3,32.707336,-117.236710,NaN,NaN,NaN,23.053, NaN,NaN,NaN, NaN, NaN
20050630,001322,99907,32.707203,-117.236750,0.0,23.048,0.056,0.107,2002.01,0.0,0.708,18.557,18.514, NaN,0.000,   NaN,18.87,1010.77,82.08,19.22,116.3,115.3,2.3,2.0,299.4,298.4,2.3,2.0,NaN, NaN,24.9,266.5,349.5,1120090403,1120090403,1,0.0,000802,000803,182.6,32.707330,-117.236707,NaN,NaN,NaN,23.054, NaN,NaN,NaN, NaN, NaN
20050630,001351,99937,32.707203,-117.236747,0.0,23.049,0.056,0.107,2168.54,0.0,0.708,18.559,18.515, NaN,0.000,   NaN,18.97,1010.77,82.37,19.24,105.2,93.0,1.6,1.6,288.0,275.7,1.6,1.6,NaN, NaN,25.0,266.5,349.5,1120090433,1120090433,1,0.0,000831,000833,182.6,32.707331,-117.236692,NaN,NaN,NaN,23.055, NaN,NaN,NaN, NaN, NaN
20050630,001421,99966,32.707206,-117.236750,0.0,23.049,0.056,0.107,2135.07,0.0,0.708,18.553,18.511, NaN,0.000,   NaN,18.98,1010.68,81.65,19.25,97.9,111.5,1.8,2.2,280.7,294.1,1.8,2.2,NaN, NaN,25.2,266.5,349.5,1120090463,1120090463,1,0.0,000861,000863,183.1,32.707320,-117.236695,NaN,NaN,NaN,23.055, NaN,NaN,NaN, NaN, NaN
20050630,001452,99998,32.707198,-117.236747,0.0,23.051,0.056,0.107,1818.41,0.0,0.708,18.549,18.510, NaN,0.000,   NaN,18.98,1010.74,82.32,19.21,112.5,131.1,1.6,2.2,295.3,313.8,1.6,2.2,NaN, NaN,25.5,266.5,349.5,1120090493,1120090493,1,0.0,000892,000893,182.6,32.707310,-117.236705,NaN,NaN,NaN,23.057, NaN,NaN,NaN, NaN, NaN
20050630,001521,100027,32.707200,-117.236748,0.0,23.051,0.056,0.107,1381.49,0.0,0.708,18.555,18.514, NaN,0.000,   NaN,19.07,1010.70,82.36,19.28,155.7,145.1,2.8,3.4,338.6,328.0,2.8,3.4,NaN, NaN,25.4,266.5,349.5,1120090523,1120090523,1,0.0,000922,000923,183.3,32.707308,-117.236703,NaN,NaN,NaN,23.057, NaN,NaN,NaN, NaN, NaN
20050630,001551,100057,32.707198,-117.236742,0.0,23.052,0.056,0.107,1525.93,0.0,0.708,18.565,18.525, NaN,0.000,   NaN,19.03,1010.72,82.03,19.29,154.1,149.5,3.9,4.3,337.1,332.5,3.9,4.3,NaN, NaN,25.0,266.5,349.5,1120090553,1120090553,1,0.0,000951,000953,182.8,32.707305,-117.236703,NaN,NaN,NaN,23.058, NaN,NaN,NaN, NaN, NaN
20050630,001621,100087,32.707198,-117.236743,0.0,23.052,0.056,0.107,1058.73,0.0,0.689,18.564,18.523, NaN,0.000,   NaN,18.87,1010.76,81.94,19.22,139.2,135.9,3.5,3.8,322.1,318.8,3.5,3.8,NaN, NaN,25.0,266.5,349.5,1120090582,1120090582,1,0.0,000981,000982,182.8,32.707316,-117.236700,NaN,NaN,NaN,23.058, NaN,NaN,NaN, NaN, NaN
20050630,001651,100116,32.707196,-117.236745,0.0,23.054,0.056,0.107,1312.51,0.0,0.708,18.557,18.513, NaN,0.000,   NaN,18.80,1010.74,81.89,19.16,109.6,109.5,3.1,3.4,292.3,292.2,3.1,3.4,NaN, NaN,25.1,266.5,349.5,1120090613,1120090612,1,0.0,001011,001012,182.8,32.707325,-117.236690,NaN,NaN,NaN,23.060, NaN,NaN,NaN, NaN, NaN
20050630,001721,100146,32.707198,-117.236745,0.0,23.053,0.056,0.107,1237.51,0.0,0.689,18.546,18.504, NaN,0.000,   NaN,18.68,1010.72,82.36,19.07,99.4,100.1,2.2,2.7,282.2,282.8,2.2,2.7,NaN, NaN,24.7,266.5,349.5,1120090643,1120090643,1,0.0,001041,001043,182.8,32.707311,-117.236690,NaN,NaN,NaN,23.059, NaN,NaN,NaN, NaN, NaN
20050630,001751,100177,32.707201,-117.236745,0.0,23.055,0.056,0.106,1992.25,0.0,0.708,18.533,18.492, NaN,0.000,   NaN,18.81,1010.75,82.78,19.12,127.8,124.0,2.1,2.4,310.8,307.0,2.1,2.4,NaN, NaN,24.3,266.5,349.5,1120090673,1120090673,1,0.0,001071,001073,183.1,32.707300,-117.236675,NaN,NaN,NaN,23.061, NaN,NaN,NaN, NaN, NaN
20050630,001821,100207,32.707200,-117.236752,0.0,23.056,0.056,0.107,1761.42,0.0,0.708,18.522,18.479, NaN,0.000,   NaN,18.88,1010.75,82.15,19.19,149.2,146.3,2.7,3.1,332.3,329.5,2.7,3.1,NaN, NaN,24.0,266.5,349.5,1120090703,1120090703,1,0.0,001102,001103,183.3,32.707301,-117.236682,NaN,NaN,NaN,23.062, NaN,NaN,NaN, NaN, NaN
20050630,001851,100237,32.707201,-117.236747,0.0,23.057,0.056,0.107,1790.47,0.0,0.708,18.523,18.480, NaN,0.000,   NaN,18.72,1010.71,82.19,19.09,161.6,151.9,2.5,3.0,344.6,334.9,2.5,3.0,NaN, NaN,23.3,266.5,349.5,1120090733,1120090732,1,0.0,001131,001132,182.1,32.707321,-117.236685,NaN,NaN,NaN,23.063, NaN,NaN,NaN, NaN, NaN
20050630,001921,100267,32.707200,-117.236745,0.0,23.058,0.056,0.107,1906.47,0.0,0.708,18.533,18.489, NaN,0.000,   NaN,18.71,1010.73,82.40,19.07,160.7,143.5,3.1,3.6,343.4,326.3,3.1,3.6,NaN, NaN,22.8,266.5,349.5,1120090763,1120090763,1,0.0,001162,001163,183.5,32.707316,-117.236680,NaN,NaN,NaN,23.064, NaN,NaN,NaN, NaN, NaN
20050630,001951,100296,32.707201,-117.236747,0.0,23.058,0.056,0.106,2006.55,0.0,0.708,18.538,18.494, NaN,0.000,   NaN,18.63,1010.73,82.43,19.02,135.5,125.5,3.3,4.0,318.5,308.4,3.3,4.0,NaN, NaN,22.3,266.5,349.5,1120090792,1120090792,1,0.0,001191,001192,182.3,32.707325,-117.236692,NaN,NaN,NaN,23.064, NaN,NaN,NaN, NaN, NaN
20050630,002021,100326,32.707206,-117.236747,0.0,23.060,0.056,0.107,1734.10,0.0,0.708,18.534,18.490, NaN,0.000,   NaN,18.55,1010.68,82.41,18.99,108.3,105.2,2.9,3.4,291.1,287.9,2.9,3.4,NaN, NaN,21.3,266.5,349.5,1120090823,1120090822,1,0.0,001221,001222,183.1,32.707321,-117.236685,NaN,NaN,NaN,23.066, NaN,NaN,NaN, NaN, NaN
20050630,002051,100357,32.707208,-117.236747,0.0,23.061,0.056,0.106,1855.63,0.0,0.708,18.529,18.479, NaN,0.000,   NaN,18.61,1010.69,83.04,19.00,125.5,130.5,1.9,2.1,308.5,313.5,1.9,2.1,NaN, NaN,20.3,266.5,349.5,1120090853,1120090853,1,0.0,001251,001253,183.3,32.707343,-117.236678,NaN,NaN,NaN,23.067, NaN,NaN,NaN, NaN, NaN
20050630,002121,100387,32.707213,-117.236747,0.0,23.061,0.056,0.106,1155.35,0.0,0.689,18.531,18.483, NaN,0.000,   NaN,18.67,1010.69,83.09,19.03,145.0,152.8,2.2,2.2,328.0,335.8,2.2,2.2,NaN, NaN,19.1,266.5,349.5,1120090883,1120090883,1,0.0,001281,001283,182.5,32.707343,-117.236675,NaN,NaN,NaN,23.067, NaN,NaN,NaN, NaN, NaN
20050630,002151,100417,32.707215,-117.236750,0.0,23.063,0.056,0.106,1603.77,0.0,0.708,18.541,18.494, NaN,0.000,   NaN,18.75,1010.70,83.34,19.08,114.4,122.1,2.5,2.8,297.0,304.7,2.5,2.8,NaN, NaN,18.9,266.5,349.5,1120090913,1120090913,1,0.0,001311,001313,182.3,32.707331,-117.236692,NaN,NaN,NaN,23.069, NaN,NaN,NaN, NaN, NaN
20050630,002221,100447,32.707215,-117.236747,0.0,23.063,0.056,0.107,1123.36,0.0,0.689,18.550,18.506, NaN,0.000,   NaN,18.73,1010.65,82.77,19.06,94.5,98.7,2.4,2.8,277.2,281.4,2.4,2.8,NaN, NaN,18.9,266.5,349.5,1120090943,1120090942,1,0.0,001341,001342,183.0,32.707308,-117.236693,NaN,NaN,NaN,23.069, NaN,NaN,NaN, NaN, NaN
20050630,002251,100476,32.707215,-117.236752,0.0,23.065,0.056,0.106,1132.69,0.0,0.708,18.553,18.510, NaN,0.000,   NaN,18.72,1010.70,83.11,19.03,105.5,112.6,2.7,2.9,288.2,295.3,2.7,2.9,NaN, NaN,19.1,266.5,349.5,1120090973,1120090972,1,0.0,001371,001372,182.6,32.707305,-117.236690,NaN,NaN,NaN,23.071, NaN,NaN,NaN, NaN, NaN
20050630,002321,100507,32.707211,-117.236750,0.0,23.066,0.056,0.106,1176.38,0.0,0.708,18.557,18.511, NaN,0.000,   NaN,18.75,1010.72,82.99,19.05,125.4,128.2,2.5,3.0,308.4,311.3,2.5,3.0,NaN, NaN,18.5,266.5,349.5,1120091003,1120091002,1,0.0,001401,001402,183.6,32.707310,-117.236703,NaN,NaN,NaN,23.072, NaN,NaN,NaN, NaN, NaN
20050630,002352,100537,32.707208,-117.236752,0.0,23.067,0.056,0.106,1390.81,0.0,0.689,18.564,18.516, NaN,0.000,   NaN,18.74,1010.67,82.92,19.03,144.9,140.6,3.1,3.7,328.5,324.1,3.1,3.7,NaN, NaN,19.1,266.5,349.5,1120091033,1120091033,1,0.0,001432,001433,183.3,32.707303,-117.236697,NaN,NaN,NaN,23.073, NaN,NaN,NaN, NaN, NaN
20050630,002422,100567,32.707210,-117.236748,0.0,23.068,0.056,0.106,1350.84,0.0,0.689,18.576,18.535, NaN,0.000,   NaN,18.67,1010.70,82.80,19.02,133.3,128.5,3.3,3.9,316.6,311.7,3.3,3.9,NaN, NaN,19.5,266.5,349.5,1120091063,1120091063,1,0.0,001462,001463,182.6,32.707296,-117.236695,NaN,NaN,NaN,23.074, NaN,NaN,NaN, NaN, NaN
20050630,002452,100598,32.707206,-117.236747,0.0,23.069,0.056,0.106,1983.11,0.0,0.708,18.591,18.547, NaN,0.000,   NaN,18.73,1010.69,83.07,19.05,129.6,127.0,2.5,2.9,312.4,309.8,2.5,2.9,NaN, NaN,21.1,266.5,349.5,1120091093,1120091093,1,0.0,001492,001493,183.6,32.707305,-117.236685,NaN,NaN,NaN,23.075, NaN,NaN,NaN, NaN, NaN
20050630,002521,100626,32.707200,-117.236748,0.0,23.070,0.056,0.106,1411.26,0.0,0.708,18.607,18.564, NaN,0.000,   NaN,18.75,1010.71,82.94,19.06,151.4,137.2,2.8,3.2,334.2,320.1,2.8,3.2,NaN, NaN,21.9,266.5,349.5,1120091123,1120091123,1,0.0,001521,001523,182.3,32.707313,-117.236685,NaN,NaN,NaN,23.076, NaN,NaN,NaN, NaN, NaN
20050630,002551,100656,32.707201,-117.236755,0.0,23.071,0.056,0.106,2106.22,0.0,0.689,18.614,18.575, NaN,0.000,   NaN,18.67,1010.66,82.57,19.04,157.6,144.2,2.9,3.0,340.3,326.9,2.9,3.0,NaN, NaN,23.7,266.5,349.5,1120091153,1120091153,1,0.0,001551,001553,183.3,32.707326,-117.236682,NaN,NaN,NaN,23.077, NaN,NaN,NaN, NaN, NaN
20050630,002622,100688,32.707193,-117.236748,0.0,23.073,0.056,0.106,1484.62,0.0,0.689,18.624,18.582, NaN,0.000,   NaN,18.69,1010.69,83.03,19.05,184.5,167.4,2.7,2.8,7.7,350.6,2.7,2.8,NaN, NaN,24.7,266.5,349.5,1120091183,1120091183,1,0.0,001582,001583,183.3,32.707320,-117.236687,NaN,NaN,NaN,23.079, NaN,NaN,NaN, NaN, NaN
20050630,002652,100717,32.707200,-117.236750,0.0,23.072,0.056,0.106,1690.07,0.0,0.708,18.628,18.586, NaN,0.000,   NaN,18.80,1010.70,83.30,19.07,175.3,166.7,2.3,3.0,358.5,349.9,2.3,3.0,NaN, NaN,25.6,266.5,349.5,1120091213,1120091213,1,0.0,001612,001613,182.8,32.707325,-117.236692,NaN,NaN,NaN,23.078, NaN,NaN,NaN, NaN, NaN
20050630,002721,100747,32.707198,-117.236748,0.0,23.074,0.056,0.106,1315.76,0.0,0.689,18.629,18.587, NaN,0.000,   NaN,18.92,1010.66,83.27,19.17,167.3,163.8,2.5,3.3,350.2,346.7,2.5,3.3,NaN, NaN,25.1,266.5,349.5,1120091243,1120091243,1,0.0,001641,001643,183.5,32.707315,-117.236700,NaN,NaN,NaN,23.080, NaN,NaN,NaN, NaN, NaN
20050630,002751,100777,32.707200,-117.236752,0.0,23.076,0.056,0.106,1502.11,0.0,0.708,18.629,18.587, NaN,0.000,   NaN,18.99,1010.69,83.01,19.23,164.4,162.1,3.3,3.8,347.5,345.2,3.3,3.8,NaN, NaN,25.0,266.5,349.5,1120091273,1120091273,1,0.0,001671,001673,183.0,32.707310,-117.236697,NaN,NaN,NaN,23.082, NaN,NaN,NaN, NaN, NaN
20050630,002822,100808,32.707203,-117.236752,0.0,23.076,0.056,0.106,1266.76,0.0,0.689,18.631,18.588, NaN,0.000,   NaN,18.93,1010.70,82.72,19.19,164.2,162.3,3.0,3.4,347.5,345.6,3.0,3.4,NaN, NaN,22.9,266.5,349.5,1120091303,1120091303,1,0.0,001702,001703,183.6,32.707323,-117.236702,NaN,NaN,NaN,23.082, NaN,NaN,NaN, NaN, NaN
20050630,002851,100836,32.707203,-117.236752,0.0,23.077,0.056,0.106,1743.61,0.0,0.708,18.628,18.584, NaN,0.000,   NaN,18.91,1010.68,82.53,19.20,184.5,171.5,2.3,2.8,7.8,354.8,2.3,2.8,NaN, NaN,22.1,266.5,349.5,1120091333,1120091333,1,0.0,001732,001733,183.1,32.707328,-117.236695,NaN,NaN,NaN,23.083, NaN,NaN,NaN, NaN, NaN
20050630,002921,100867,32.707206,-117.236752,0.0,23.077,0.056,0.106,1488.88,0.0,0.708,18.618,18.573, NaN,0.000,   NaN,18.97,1010.66,82.70,19.23,174.0,161.8,2.4,3.1,357.3,345.2,2.4,3.1,NaN, NaN,20.7,266.5,349.5,1120091363,1120091363,1,0.0,001761,001763,183.3,32.707335,-117.236695,NaN,NaN,NaN,23.083, NaN,NaN,NaN, NaN, NaN
20050630,002951,100897,32.707201,-117.236752,0.0,23.077,0.056,0.106,1632.54,0.0,0.708,18.604,18.558, NaN,0.000,   NaN,18.99,1010.64,82.57,19.26,161.5,161.4,3.1,3.2,344.8,344.7,3.1,3.2,NaN, NaN,19.8,266.5,349.5,1120091393,1120091392,1,0.0,001791,001792,183.1,32.707331,-117.236685,NaN,NaN,NaN,23.083, NaN,NaN,NaN, NaN, NaN
20050630,003021,100927,32.707206,-117.236755,0.0,23.079,0.056,0.106,1055.66,0.0,0.708,18.595,18.545, NaN,0.000,   NaN,19.05,1010.71,82.55,19.31,161.4,158.6,2.7,3.0,344.6,341.7,2.7,3.0,NaN, NaN,19.3,266.5,349.5,1120091423,1120091422,1,0.0,001821,001822,183.1,32.707335,-117.236697,NaN,NaN,NaN,23.085, NaN,NaN,NaN, NaN, NaN
20050630,003051,100957,32.707203,-117.236753,0.0,23.079,0.056,0.106,1627.21,0.0,0.708,18.583,18.541, NaN,0.000,   NaN,19.10,1010.71,82.29,19.34,126.5,139.2,1.9,2.4,309.6,322.3,1.9,2.4,NaN, NaN,19.4,266.5,349.5,1120091453,1120091453,1,0.0,001851,001853,182.6,32.707341,-117.236695,NaN,NaN,NaN,23.085, NaN,NaN,NaN, NaN, NaN
20050630,003121,100986,32.707203,-117.236752,0.0,23.080,0.056,0.106,2146.62,0.0,0.708,18.578,18.530, NaN,0.000,   NaN,19.02,1010.71,81.90,19.32,121.3,132.0,2.3,2.4,304.3,315.0,2.3,2.4,NaN, NaN,19.9,266.5,349.5,1120091483,1120091483,1,0.0,001882,001883,183.3,32.707345,-117.236693,NaN,NaN,NaN,23.086, NaN,NaN,NaN, NaN, NaN
20050630,003151,101017,32.707200,-117.236753,0.0,23.081,0.056,0.106,1959.50,0.0,0.689,18.572,18.518, NaN,0.000,   NaN,19.07,1010.71,82.15,19.33,131.9,134.1,2.8,2.9,315.0,317.2,2.8,2.9,NaN, NaN,19.8,266.5,349.5,1120091513,1120091513,1,0.0,001911,001913,183.1,32.707326,-117.236700,NaN,NaN,NaN,23.087, NaN,NaN,NaN, NaN, NaN
20050630,003221,101047,32.707203,-117.236755,0.0,23.081,0.056,0.106,1855.00,0.0,0.708,18.556,18.508, NaN,0.000,   NaN,19.10,1010.68,81.81,19.38,117.3,122.1,2.8,3.4,300.3,305.0,2.8,3.4,NaN, NaN,20.8,266.5,349.5,1120091543,1120091542,1,0.0,001941,001942,182.3,32.707320,-117.236702,NaN,NaN,NaN,23.087, NaN,NaN,NaN, NaN, NaN
20050630,003252,101077,32.707203,-117.236753,0.0,23.081,0.056,0.106,1215.67,0.0,0.708,18.544,18.493, NaN,0.000,   NaN,18.90,1010.70,81.68,19.27,109.3,115.4,2.5,3.1,292.0,298.2,2.5,3.1,NaN, NaN,21.4,266.5,349.5,1120091573,1120091573,1,0.0,001972,001973,183.3,32.707331,-117.236710,NaN,NaN,NaN,23.087, NaN,NaN,NaN, NaN, NaN
20050630,003321,101107,32.707205,-117.236753,0.0,23.082,0.056,0.106,1170.64,0.0,0.708,18.531,18.483, NaN,0.000,   NaN,18.88,1010.72,82.09,19.24,119.8,122.2,2.4,3.1,302.9,305.3,2.4,3.1,NaN, NaN,21.5,266.5,349.5,1120091603,1120091603,1,0.0,002002,002003,183.0,32.707320,-117.236722,NaN,NaN,NaN,23.088, NaN,NaN,NaN, NaN, NaN
20050630,003351,101136,32.707205,-117.236750,0.0,23.081,0.056,0.106,1028.36,0.0,0.708,18.525,18.478, NaN,0.000,   NaN,18.81,1010.69,82.08,19.20,119.4,120.6,2.6,3.3,302.4,303.6,2.6,3.3,NaN, NaN,21.6,266.5,349.5,1120091633,1120091633,1,0.0,002032,002033,182.6,32.707316,-117.236733,NaN,NaN,NaN,23.087, NaN,NaN,NaN, NaN, NaN
20050630,003421,101166,32.707208,-117.236748,0.0,23.083,0.056,0.106,933.73,0.0,0.708,18.522,18.477, NaN,0.000,   NaN,18.67,1010.63,81.99,19.14,117.6,113.0,3.4,4.3,300.3,295.7,3.4,4.3,NaN, NaN,21.7,266.5,349.5,1120091663,1120091662,1,0.0,002061,002062,183.0,32.707330,-117.236717,NaN,NaN,NaN,23.089, NaN,NaN,NaN, NaN, NaN
20050630,003451,101197,32.707201,-117.236747,0.0,23.083,0.056,0.106,1066.42,0.0,0.689,18.522,18.476, NaN,0.000,   NaN,18.43,1010.67,81.99,18.98,119.1,115.9,4.5,5.2,301.9,298.6,4.5,5.2,NaN, NaN,21.3,266.5,349.5,1120091693,1120091693,1,0.0,002092,002093,182.8,32.707326,-117.236712,NaN,NaN,NaN,23.089, NaN,NaN,NaN, NaN, NaN
20050630,003521,101227,32.707203,-117.236748,0.0,23.083,0.056,0.106,1472.98,0.0,0.708,18.529,18.483, NaN,0.000,   NaN,18.23,1010.68,82.43,18.84,121.7,118.1,4.2,4.9,304.5,300.9,4.2,4.9,NaN, NaN,21.5,266.5,349.5,1120091723,1120091723,1,0.0,002121,002123,183.0,32.707321,-117.236700,NaN,NaN,NaN,23.089, NaN,NaN,NaN, NaN, NaN
20050630,003551,101257,32.707201,-117.236748,0.0,23.084,0.056,0.106,1362.30,0.0,0.708,18.548,18.505, NaN,0.000,   NaN,18.23,1010.66,82.86,18.78,123.2,119.3,3.0,3.8,306.1,302.3,3.0,3.8,NaN, NaN,21.2,266.5,349.5,1120091753,1120091753,1,0.0,002152,002153,183.0,32.707316,-117.236698,NaN,NaN,NaN,23.090, NaN,NaN,NaN, NaN, NaN
20050630,003622,101288,32.707205,-117.236752,0.0,23.085,0.056,0.106,1562.08,0.0,0.708,18.572,18.527, NaN,0.000,   NaN,18.23,1010.61,83.21,18.75,113.9,116.3,2.5,2.9,296.7,299.2,2.5,2.9,NaN, NaN,21.9,266.5,349.5,1120091783,1120091783,1,0.0,002182,002183,182.6,32.707298,-117.236708,NaN,NaN,NaN,23.091, NaN,NaN,NaN, NaN, NaN
20050630,003651,101316,32.707201,-117.236747,0.0,23.086,0.056,0.106,1570.27,0.0,0.708,18.584,18.543, NaN,0.000,   NaN,18.32,1010.60,83.55,18.80,107.0,112.9,3.7,4.0,289.7,295.6,3.7,4.0,NaN, NaN,21.1,266.5,349.5,1120091813,1120091813,1,0.0,002212,002213,182.6,32.707321,-117.236697,NaN,NaN,NaN,23.092, NaN,NaN,NaN, NaN, NaN